Simultaneous Nadir Overpasses (SNOs) Predictions

Prediction of SNOs between NOAA-19 and TERRA Satellite Orbit:

Table of predicted SNOs for the next 14.0 days since TLE Epoch: 7/5/2014
Index Date (NOAA-19) Time (NOAA-19) Lat,Lon (NOAA-19) SZA (NOAA-19 ) Date (TERRA) Time (TERRA) Lat,Lon (TERRA) SZA (TERRA ) Distance(km) Time Diff (sec)
1 07/06/2014 15:48:16 -70.71, 124.44 132.04 07/06/2014 15:49:01 -70.71, 124.52 132.05 2.75 45
2 07/06/2014 16:39:15 70.54, -68.03 47.79 07/06/2014 16:38:29 70.55, -68.08 47.80 2.19 46
3 07/08/2014 20:32:06 -70.71, 53.51 131.80 07/08/2014 20:33:16 -70.71, 53.45 131.81 2.22 70
4 07/08/2014 21:23:06 70.62,-139.10 48.12 07/08/2014 21:22:43 70.60,-139.06 48.09 2.88 23
5 07/11/2014 01:16:11 -71.48, -18.78 130.75 07/11/2014 01:17:19 -71.34, -16.61 130.89 78.40 68
6 07/11/2014 02:06:56 70.66, 149.92 48.42 07/11/2014 02:06:57 70.64, 149.93 48.40 2.19 1
7 07/11/2014 02:57:46 -70.01, -41.80 132.22 07/11/2014 02:56:36 -70.04, -43.31 132.20 57.37 70
8 07/13/2014 06:50:46 70.69, 78.92 48.77 07/13/2014 06:51:11 70.66, 78.91 48.74 3.20 25
9 07/13/2014 07:41:46 -70.53,-113.58 131.39 07/13/2014 07:40:41 -70.56,-113.61 131.37 3.09 65
10 07/15/2014 11:34:36 70.73, 7.92 49.14 07/15/2014 11:35:24 70.74, 7.96 49.14 1.39 48
11 07/15/2014 12:25:37 -70.60, 175.39 130.99 07/15/2014 12:24:55 -70.58, 175.36 131.02 2.30 42
12 07/17/2014 16:18:26 70.78, -63.08 49.55 07/17/2014 16:19:37 70.79, -63.01 49.56 3.30 71
13 07/17/2014 17:09:28 -70.66, 104.34
